TimeCST,TemperatureF,Dew PointF,Humidity,Sea Level PressureIn,VisibilityMPH,Wind Direction,Wind SpeedMPH,Gust SpeedMPH,PrecipitationIn,Events,Conditions,WindDirDegrees,DateUTC
12:15 AM,34.9,33.6,95,29.98,10.0,WNW,5.8,-,N/A,,Overcast,300,2012-11-07 06:15:00
12:35 AM,34.9,33.4,94,29.98,10.0,NW,8.1,-,N/A,,Overcast,310,2012-11-07 06:35:00
12:55 AM,34.9,33.6,95,29.98,10.0,NW,5.8,-,N/A,,Overcast,310,2012-11-07 06:55:00
1:15 AM,34.9,33.6,95,29.99,10.0,WNW,6.9,-,N/A,,Overcast,300,2012-11-07 07:15:00
1:35 AM,35.1,33.6,94,30.00,10.0,WNW,5.8,-,N/A,,Overcast,300,2012-11-07 07:35:00
1:55 AM,35.1,33.6,94,30.00,10.0,NW,6.9,-,N/A,,Overcast,310,2012-11-07 07:55:00
2:15 AM,35.1,33.4,94,30.01,10.0,NW,5.8,-,N/A,,Overcast,310,2012-11-07 08:15:00
2:35 AM,35.1,33.8,95,30.00,10.0,NW,4.6,-,N/A,,Overcast,310,2012-11-07 08:35:00
2:55 AM,35.1,33.6,94,30.01,10.0,WNW,4.6,-,N/A,,Overcast,290,2012-11-07 08:55:00
3:15 AM,35.1,33.8,95,30.01,10.0,WNW,4.6,-,N/A,,Overcast,290,2012-11-07 09:15:00
3:35 AM,35.1,33.8,95,30.01,7.0,WNW,4.6,-,N/A,,Overcast,290,2012-11-07 09:35:00
3:55 AM,35.1,33.8,95,30.01,10.0,West,3.5,-,N/A,,Overcast,260,2012-11-07 09:55:00
4:15 AM,35.1,34.0,96,30.02,7.0,West,3.5,-,N/A,,Overcast,260,2012-11-07 10:15:00
4:35 AM,35.2,34.2,96,30.02,7.0,WSW,3.5,-,N/A,,Overcast,250,2012-11-07 10:35:00
4:55 AM,35.2,34.0,95,30.02,10.0,WSW,3.5,-,N/A,,Overcast,250,2012-11-07 10:55:00
5:15 AM,35.4,34.0,94,30.02,10.0,WSW,3.5,-,N/A,,Overcast,250,2012-11-07 11:15:00
5:35 AM,35.6,34.0,94,30.02,10.0,SW,3.5,-,N/A,,Overcast,230,2012-11-07 11:35:00
5:55 AM,35.4,34.0,94,30.03,10.0,WSW,3.5,-,N/A,,Overcast,250,2012-11-07 11:55:00
6:15 AM,35.2,34.2,96,30.02,7.0,West,3.5,-,N/A,,Overcast,270,2012-11-07 12:15:00
7:15 AM,35.1,34.0,96,30.04,7.0,Calm,Calm,-,N/A,,Overcast,0,2012-11-07 13:15:00
7:35 AM,35.2,34.2,96,30.04,7.0,West,3.5,-,N/A,,Overcast,270,2012-11-07 13:35:00
7:55 AM,35.6,34.0,94,30.05,7.0,Calm,Calm,-,N/A,,Overcast,0,2012-11-07 13:55:00
8:15 AM,35.6,34.2,94,30.04,7.0,Calm,Calm,-,N/A,,Overcast,0,2012-11-07 14:15:00
8:35 AM,35.8,33.6,92,30.05,10.0,NW,3.5,-,N/A,,Overcast,310,2012-11-07 14:35:00
8:55 AM,36.1,33.1,89,30.05,10.0,NW,3.5,-,N/A,,Overcast,320,2012-11-07 14:55:00
9:15 AM,36.3,32.5,86,30.05,10.0,Calm,Calm,-,N/A,,Overcast,0,2012-11-07 15:15:00
9:35 AM,36.7,32.0,83,30.05,7.0,Calm,Calm,-,N/A,,Mostly Cloudy,0,2012-11-07 15:35:00
10:15 AM,37.9,32.2,80,30.05,7.0,Calm,Calm,-,N/A,,Mostly Cloudy,0,2012-11-07 16:15:00
10:35 AM,37.4,32.0,81,30.05,7.0,West,3.5,-,N/A,,Mostly Cloudy,280,2012-11-07 16:35:00
10:55 AM,37.9,32.0,79,30.05,7.0,Calm,Calm,-,N/A,,Scattered Clouds,0,2012-11-07 16:55:00
11:15 AM,39.2,32.0,75,30.05,7.0,SSW,3.5,-,N/A,,Clear,210,2012-11-07 17:15:00
11:35 AM,40.1,32.0,73,30.05,10.0,SW,3.5,-,N/A,,Mostly Cloudy,220,2012-11-07 17:35:00
11:55 AM,40.1,31.8,72,30.02,10.0,Calm,Calm,-,N/A,,Scattered Clouds,0,2012-11-07 17:55:00
12:15 PM,41.0,31.8,70,30.02,10.0,SSW,3.5,-,N/A,,Scattered Clouds,210,2012-11-07 18:15:00
12:35 PM,41.5,31.1,66,30.02,10.0,WSW,3.5,-,N/A,,Clear,250,2012-11-07 18:35:00
12:55 PM,41.5,31.5,67,30.01,7.0,Calm,Calm,-,N/A,,Clear,0,2012-11-07 18:55:00
1:15 PM,42.6,31.6,65,30.00,7.0,SSW,8.1,-,N/A,,Mostly Cloudy,210,2012-11-07 19:15:00
1:35 PM,42.4,31.3,65,29.99,10.0,South,6.9,-,N/A,,Mostly Cloudy,190,2012-11-07 19:35:00
1:55 PM,42.3,31.1,65,29.99,7.0,South,3.5,-,N/A,,Scattered Clouds,180,2012-11-07 19:55:00
2:15 PM,43.5,30.7,61,29.99,7.0,SW,5.8,-,N/A,,Scattered Clouds,220,2012-11-07 20:15:00
2:35 PM,43.0,30.6,62,29.98,10.0,SE,6.9,-,N/A,,Scattered Clouds,140,2012-11-07 20:35:00
2:55 PM,42.6,30.9,63,29.98,10.0,Calm,Calm,-,N/A,,Scattered Clouds,0,2012-11-07 20:55:00
3:15 PM,42.3,31.1,65,29.98,7.0,SSE,5.8,-,N/A,,Scattered Clouds,160,2012-11-07 21:15:00
3:35 PM,42.3,31.5,66,29.98,10.0,SE,3.5,-,N/A,,Scattered Clouds,130,2012-11-07 21:35:00
3:55 PM,42.3,31.6,66,29.98,7.0,East,4.6,-,N/A,,Scattered Clouds,90,2012-11-07 21:55:00
4:15 PM,41.9,31.8,67,29.97,7.0,SE,8.1,-,N/A,,Scattered Clouds,130,2012-11-07 22:15:00
4:35 PM,40.8,31.3,69,29.97,7.0,ESE,5.8,-,N/A,,Scattered Clouds,110,2012-11-07 22:35:00
4:55 PM,40.1,31.5,71,29.97,10.0,East,8.1,-,N/A,,Mostly Cloudy,100,2012-11-07 22:55:00
5:15 PM,39.7,31.5,72,29.96,10.0,ESE,8.1,-,N/A,,Mostly Cloudy,110,2012-11-07 23:15:00
5:35 PM,38.8,31.6,75,29.95,10.0,SE,8.1,-,N/A,,Scattered Clouds,130,2012-11-07 23:35:00
5:55 PM,38.1,31.8,78,29.94,10.0,SE,9.2,-,N/A,,Scattered Clouds,130,2012-11-07 23:55:00
6:15 PM,38.7,32.0,77,29.94,7.0,SE,10.4,-,N/A,,Mostly Cloudy,140,2012-11-08 00:15:00
6:35 PM,38.7,31.8,76,29.93,10.0,SE,10.4,-,N/A,,Overcast,130,2012-11-08 00:35:00
6:55 PM,38.5,31.8,77,29.94,10.0,SE,6.9,-,N/A,,Mostly Cloudy,140,2012-11-08 00:55:00
7:15 PM,38.3,32.0,78,29.93,7.0,SE,6.9,-,N/A,,Mostly Cloudy,130,2012-11-08 01:15:00
7:35 PM,38.3,32.0,78,29.92,7.0,SE,9.2,-,N/A,,Mostly Cloudy,140,2012-11-08 01:35:00
7:55 PM,38.5,32.0,78,29.91,10.0,SSE,9.2,-,N/A,,Overcast,150,2012-11-08 01:55:00
8:15 PM,39.2,32.0,75,29.90,10.0,SSE,10.4,-,N/A,,Mostly Cloudy,150,2012-11-08 02:15:00
8:35 PM,39.7,32.0,74,29.90,10.0,SSE,10.4,-,N/A,,Scattered Clouds,150,2012-11-08 02:35:00
8:55 PM,40.1,32.0,73,29.89,7.0,SSE,12.7,-,N/A,,Overcast,160,2012-11-08 02:55:00
9:15 PM,40.3,32.0,72,29.88,10.0,SSE,15.0,19.6,N/A,,Mostly Cloudy,150,2012-11-08 03:15:00
9:35 PM,40.3,32.0,72,29.87,10.0,SSE,16.1,20.7,N/A,,Mostly Cloudy,150,2012-11-08 03:35:00
9:55 PM,40.3,32.0,72,29.88,10.0,SSE,12.7,-,N/A,,Mostly Cloudy,160,2012-11-08 03:55:00
10:15 PM,40.6,32.0,71,29.88,10.0,SSE,11.5,-,N/A,,Overcast,160,2012-11-08 04:15:00
10:35 PM,40.8,32.0,71,29.88,10.0,South,12.7,18.4,N/A,,Overcast,170,2012-11-08 04:35:00
10:55 PM,41.0,32.2,71,29.88,7.0,South,10.4,-,N/A,,Mostly Cloudy,170,2012-11-08 04:55:00
11:15 PM,41.0,32.2,71,29.89,10.0,South,10.4,16.1,N/A,,Light Drizzle,170,2012-11-08 05:15:00
11:35 PM,41.0,32.2,71,29.89,10.0,South,11.5,17.3,N/A,,Overcast,180,2012-11-08 05:35:00
11:55 PM,40.6,32.0,71,29.88,10.0,South,12.7,18.4,N/A,,Overcast,180,2012-11-08 05:55:00